Time,TemperatureF,DewpointF,PressureIn,WindDirection,WindDirectionDegrees,WindSpeedMPH,WindSpeedGustMPH,Humidity,HourlyPrecipIn,Conditions,Clouds,dailyrainin,SoftwareType,DateUTC
2013-03-07 00:03:00,42.0,-99.9,-100.00,SW,231,9.0,12.0,-999,-99.99,,,-99.99,,2013-03-07 08:03:00,
2013-03-07 00:12:00,42.0,-99.9,-100.00,SW,231,9.0,12.0,-999,-99.99,,,-99.99,,2013-03-07 08:12:00,
2013-03-07 01:04:00,42.0,-99.9,-100.00,WSW,246,10.0,14.0,-999,-99.99,,,-99.99,,2013-03-07 09:04:00,
2013-03-07 01:14:00,42.0,-99.9,-100.00,WSW,246,10.0,14.0,-999,-99.99,,,-99.99,,2013-03-07 09:14:00,
2013-03-07 02:04:00,42.0,-99.9,-100.00,SW,233,8.0,12.0,-999,-99.99,,,-99.99,,2013-03-07 10:04:00,
2013-03-07 02:14:00,42.0,-99.9,-100.00,SW,233,8.0,12.0,-999,-99.99,,,-99.99,,2013-03-07 10:14:00,
2013-03-07 03:04:00,42.0,-99.9,-100.00,SSW,211,12.0,14.0,-999,-99.99,,,-99.99,,2013-03-07 11:04:00,
2013-03-07 03:12:00,42.0,-99.9,-100.00,SSW,211,12.0,14.0,-999,-99.99,,,-99.99,,2013-03-07 11:12:00,
2013-03-07 04:04:00,42.0,-99.9,-100.00,SSW,195,12.0,15.0,-999,-99.99,,,-99.99,,2013-03-07 12:04:00,
2013-03-07 04:13:00,42.0,-99.9,-100.00,SSW,195,12.0,15.0,-999,-99.99,,,-99.99,,2013-03-07 12:13:00,
2013-03-07 05:03:00,42.0,-99.9,-100.00,SSW,199,9.0,12.0,-999,-99.99,,,-99.99,,2013-03-07 13:03:00,
2013-03-07 05:13:00,42.0,-99.9,-100.00,SSW,199,9.0,12.0,-999,-99.99,,,-99.99,,2013-03-07 13:13:00,
2013-03-07 06:02:00,43.0,-99.9,-100.00,WSW,238,5.0,8.0,-999,-99.99,,,-99.99,,2013-03-07 14:02:00,
2013-03-07 06:13:00,43.0,-99.9,-100.00,WSW,238,5.0,8.0,-999,-99.99,,,-99.99,,2013-03-07 14:13:00,
2013-03-07 07:03:00,42.0,-99.9,-100.00,WSW,244,7.0,8.0,-999,-99.99,,,-99.99,,2013-03-07 15:03:00,
2013-03-07 07:13:00,42.0,-99.9,-100.00,WSW,244,7.0,8.0,-999,-99.99,,,-99.99,,2013-03-07 15:13:00,
2013-03-07 08:03:00,40.0,-99.9,-100.00,WSW,241,8.0,12.0,-999,-99.99,,,-99.99,,2013-03-07 16:03:00,
2013-03-07 08:13:00,40.0,-99.9,-100.00,WSW,241,8.0,12.0,-999,-99.99,,,-99.99,,2013-03-07 16:13:00,
2013-03-07 09:03:00,42.0,-99.9,-100.00,WSW,238,3.0,7.0,-999,-99.99,,,-99.99,,2013-03-07 17:03:00,
2013-03-07 09:13:00,42.0,-99.9,-100.00,WSW,238,3.0,7.0,-999,-99.99,,,-99.99,,2013-03-07 17:13:00,
2013-03-07 10:04:00,44.0,-99.9,-100.00,South,176,6.0,9.0,-999,-99.99,,,-99.99,,2013-03-07 18:04:00,
2013-03-07 10:13:00,44.0,-99.9,-100.00,South,176,6.0,9.0,-999,-99.99,,,-99.99,,2013-03-07 18:13:00,
2013-03-07 11:04:00,47.0,-99.9,-100.00,SW,215,8.0,12.0,-999,-99.99,,,-99.99,,2013-03-07 19:04:00,
2013-03-07 11:13:00,47.0,-99.9,-100.00,SW,215,8.0,12.0,-999,-99.99,,,-99.99,,2013-03-07 19:13:00,
2013-03-07 11:53:00,49.0,-99.9,-100.00,WSW,248,3.0,9.0,-999,-99.99,,,-99.99,,2013-03-07 19:53:00,
2013-03-07 12:02:00,49.0,-99.9,-100.00,WSW,248,3.0,9.0,-999,-99.99,,,-99.99,,2013-03-07 20:02:00,
2013-03-07 12:14:00,49.0,-99.9,-100.00,WSW,248,3.0,9.0,-999,-99.99,,,-99.99,,2013-03-07 20:14:00,
2013-03-07 13:03:00,52.0,-99.9,-100.00,SW,225,5.0,14.0,-999,-99.99,,,-99.99,,2013-03-07 21:03:00,
2013-03-07 13:13:00,52.0,-99.9,-100.00,SW,225,5.0,14.0,-999,-99.99,,,-99.99,,2013-03-07 21:13:00,
2013-03-07 14:02:00,53.0,-99.9,-100.00,SSE,158,5.0,12.0,-999,-99.99,,,-99.99,,2013-03-07 22:02:00,
2013-03-07 14:12:00,53.0,-99.9,-100.00,SSE,158,5.0,12.0,-999,-99.99,,,-99.99,,2013-03-07 22:12:00,
2013-03-07 14:55:00,52.0,-99.9,-100.00,SW,216,9.0,17.0,-999,-99.99,,,-99.99,,2013-03-07 22:55:00,
2013-03-07 15:03:00,52.0,-99.9,-100.00,SW,216,9.0,17.0,-999,-99.99,,,-99.99,,2013-03-07 23:03:00,
2013-03-07 15:13:00,52.0,-99.9,-100.00,SW,216,9.0,17.0,-999,-99.99,,,-99.99,,2013-03-07 23:13:00,
2013-03-07 16:05:00,53.0,-99.9,-100.00,West,273,6.0,12.0,-999,-99.99,,,-99.99,,2013-03-08 00:05:00,
2013-03-07 16:13:00,53.0,-99.9,-100.00,West,273,6.0,12.0,-999,-99.99,,,-99.99,,2013-03-08 00:13:00,
2013-03-07 17:02:00,54.0,-99.9,-100.00,SSW,194,3.0,12.0,-999,-99.99,,,-99.99,,2013-03-08 01:02:00,
2013-03-07 17:12:00,54.0,-99.9,-100.00,SSW,194,3.0,12.0,-999,-99.99,,,-99.99,,2013-03-08 01:12:00,
2013-03-07 18:02:00,53.0,-99.9,-100.00,ESE,114,5.0,7.0,-999,-99.99,,,-99.99,,2013-03-08 02:02:00,
2013-03-07 18:12:00,53.0,-99.9,-100.00,ESE,114,5.0,7.0,-999,-99.99,,,-99.99,,2013-03-08 02:12:00,
2013-03-07 19:02:00,49.0,-99.9,-100.00,ESE,118,8.0,10.0,-999,-99.99,,,-99.99,,2013-03-08 03:02:00,
2013-03-07 19:12:00,49.0,-99.9,-100.00,ESE,118,8.0,10.0,-999,-99.99,,,-99.99,,2013-03-08 03:12:00,
2013-03-07 19:53:00,49.0,-99.9,-100.00,SSE,158,6.0,7.0,-999,-99.99,,,-99.99,,2013-03-08 03:53:00,
2013-03-07 20:02:00,49.0,-99.9,-100.00,SSE,158,6.0,7.0,-999,-99.99,,,-99.99,,2013-03-08 04:02:00,
2013-03-07 20:12:00,49.0,-99.9,-100.00,SSE,158,6.0,7.0,-999,-99.99,,,-99.99,,2013-03-08 04:12:00,
2013-03-07 21:02:00,48.0,-99.9,-100.00,SE,146,6.0,7.0,-999,-99.99,,,-99.99,,2013-03-08 05:02:00,
2013-03-07 22:02:00,49.0,-99.9,-100.00,SE,127,3.0,3.0,-999,-99.99,,,-99.99,,2013-03-08 06:02:00,
2013-03-07 22:52:00,46.0,-99.9,-100.00,South,191,3.0,3.0,-999,-99.99,,,-99.99,,2013-03-08 06:52:00,
2013-03-07 23:01:00,46.0,-99.9,-100.00,South,191,3.0,3.0,-999,-99.99,,,-99.99,,2013-03-08 07:01:00,
2013-03-07 23:52:00,43.0,-99.9,-100.00,NNW,334,7.0,14.0,-999,-99.99,,,-99.99,,2013-03-08 07:52:00,